Time,TemperatureF,DewpointF,PressureIn,WindDirection,WindDirectionDegrees,WindSpeedMPH,WindSpeedGustMPH,Humidity,HourlyPrecipIn,Conditions,Clouds,dailyrainin,SoftwareType,DateUTC
2013-08-30 00:14:00,71.0,69.0,29.97,South,186,1.0,-999.0,93,-99.99,,,-99.99,,2013-08-30 04:14:00,
2013-08-30 00:25:00,71.0,69.0,29.98,South,186,0.0,-999.0,92,-99.99,,,-99.99,,2013-08-30 04:25:00,
2013-08-30 00:54:00,70.0,68.0,29.98,South,186,0.0,-999.0,93,-99.99,,,-99.99,,2013-08-30 04:54:00,
2013-08-30 01:12:00,70.0,68.0,29.98,South,186,0.0,-999.0,94,-99.99,,,-99.99,,2013-08-30 05:12:00,
2013-08-30 01:23:00,70.0,68.0,29.98,South,186,0.0,-999.0,94,-99.99,,,-99.99,,2013-08-30 05:23:00,
2013-08-30 01:42:00,70.0,68.0,29.97,South,186,1.0,-999.0,94,-99.99,,,-99.99,,2013-08-30 05:42:00,
2013-08-30 01:52:00,69.0,67.0,29.96,South,186,0.0,-999.0,94,-99.99,,,-99.99,,2013-08-30 05:52:00,
2013-08-30 02:12:00,69.0,67.0,29.96,South,186,1.0,-999.0,94,-99.99,,,-99.99,,2013-08-30 06:12:00,
2013-08-30 02:22:00,69.0,68.0,29.97,South,186,0.0,-999.0,95,-99.99,,,-99.99,,2013-08-30 06:22:00,
2013-08-30 02:42:00,69.0,68.0,29.96,South,186,0.0,-999.0,95,-99.99,,,-99.99,,2013-08-30 06:42:00,
2013-08-30 02:53:00,69.0,68.0,29.96,South,186,0.0,-999.0,95,-99.99,,,-99.99,,2013-08-30 06:53:00,
2013-08-30 03:12:00,69.0,68.0,29.96,South,186,0.0,-999.0,95,-99.99,,,-99.99,,2013-08-30 07:12:00,
2013-08-30 03:22:00,69.0,68.0,29.95,South,186,0.0,-999.0,96,-99.99,,,-99.99,,2013-08-30 07:22:00,
2013-08-30 03:44:00,69.0,68.0,29.95,South,186,0.0,-999.0,95,-99.99,,,-99.99,,2013-08-30 07:44:00,
2013-08-30 03:53:00,68.0,67.0,29.94,South,186,0.0,-999.0,96,-99.99,,,-99.99,,2013-08-30 07:53:00,
2013-08-30 04:11:00,68.0,67.0,29.94,South,186,0.0,-999.0,96,-99.99,,,-99.99,,2013-08-30 08:11:00,
2013-08-30 04:22:00,68.0,67.0,29.93,South,186,0.0,-999.0,96,-99.99,,,-99.99,,2013-08-30 08:22:00,
2013-08-30 04:43:00,68.0,67.0,29.92,South,186,0.0,-999.0,96,-99.99,,,-99.99,,2013-08-30 08:43:00,
2013-08-30 04:52:00,69.0,68.0,29.91,South,186,0.0,-999.0,96,-99.99,,,-99.99,,2013-08-30 08:52:00,
2013-08-30 05:12:00,69.0,68.0,29.91,South,186,1.0,-999.0,96,-99.99,,,-99.99,,2013-08-30 09:12:00,
2013-08-30 05:22:00,69.0,68.0,29.90,South,180,0.0,-999.0,96,-99.99,,,-99.99,,2013-08-30 09:22:00,
2013-08-30 05:44:00,69.0,68.0,29.89,South,180,0.0,-999.0,96,-99.99,,,-99.99,,2013-08-30 09:44:00,
2013-08-30 05:53:00,68.0,67.0,29.89,South,180,0.0,-999.0,96,-99.99,,,-99.99,,2013-08-30 09:53:00,
2013-08-30 06:13:00,68.0,67.0,29.89,South,180,0.0,-999.0,96,-99.99,,,-99.99,,2013-08-30 10:13:00,
2013-08-30 06:23:00,68.0,67.0,29.91,South,180,1.0,-999.0,96,-99.99,,,-99.99,,2013-08-30 10:23:00,
2013-08-30 06:43:00,68.0,67.0,29.90,South,180,0.0,-999.0,97,-99.99,,,-99.99,,2013-08-30 10:43:00,
2013-08-30 06:53:00,68.0,67.0,29.89,South,180,0.0,-999.0,97,-99.99,,,-99.99,,2013-08-30 10:53:00,
2013-08-30 07:12:00,68.0,67.0,29.89,South,180,0.0,-999.0,97,-99.99,,,-99.99,,2013-08-30 11:12:00,
2013-08-30 07:22:00,68.0,67.0,29.87,South,180,0.0,-999.0,97,-99.99,,,-99.99,,2013-08-30 11:22:00,
2013-08-30 07:42:00,68.0,67.0,29.88,South,180,0.0,-999.0,97,-99.99,,,-99.99,,2013-08-30 11:42:00,
2013-08-30 07:52:00,68.0,67.0,29.87,South,180,1.0,-999.0,97,-99.99,,,-99.99,,2013-08-30 11:52:00,
2013-08-30 08:12:00,68.0,67.0,29.88,South,180,0.0,-999.0,97,-99.99,,,-99.99,,2013-08-30 12:12:00,
2013-08-30 08:21:00,68.0,67.0,29.88,South,180,0.0,-999.0,97,-99.99,,,-99.99,,2013-08-30 12:21:00,
2013-08-30 08:42:00,68.0,67.0,29.87,South,180,0.0,-999.0,97,-99.99,,,-99.99,,2013-08-30 12:42:00,
2013-08-30 08:52:00,68.0,67.0,29.87,South,180,0.0,-999.0,97,-99.99,,,-99.99,,2013-08-30 12:52:00,
2013-08-30 09:11:00,68.0,67.0,29.90,South,180,0.0,-999.0,97,-99.99,,,-99.99,,2013-08-30 13:11:00,
2013-08-30 09:22:00,68.0,67.0,29.88,South,180,0.0,-999.0,98,-99.99,,,-99.99,,2013-08-30 13:22:00,
2013-08-30 09:52:00,68.0,67.0,29.87,South,180,2.0,-999.0,98,-99.99,,,-99.99,,2013-08-30 13:52:00,
2013-08-30 10:11:00,67.0,66.0,29.86,SSE,166,2.0,-999.0,98,-99.99,,,-99.99,,2013-08-30 14:11:00,
2013-08-30 10:22:00,67.0,66.0,29.85,SE,142,5.0,-999.0,98,-99.99,,,-99.99,,2013-08-30 14:22:00,
2013-08-30 10:42:00,67.0,66.0,29.84,SSE,162,4.0,-999.0,98,-99.99,,,-99.99,,2013-08-30 14:42:00,
2013-08-30 10:52:00,67.0,66.0,29.83,South,174,5.0,-999.0,98,-99.99,,,-99.99,,2013-08-30 14:52:00,
2013-08-30 11:11:00,67.0,66.0,29.83,South,176,6.0,-999.0,98,-99.99,,,-99.99,,2013-08-30 15:11:00,
2013-08-30 11:22:00,67.0,66.0,29.82,SSW,203,5.0,-999.0,97,-99.99,,,-99.99,,2013-08-30 15:22:00,
2013-08-30 11:43:00,67.0,66.0,29.81,South,172,4.0,-999.0,97,-99.99,,,-99.99,,2013-08-30 15:43:00,
2013-08-30 11:54:00,67.0,66.0,29.81,South,169,4.0,-999.0,97,-99.99,,,-99.99,,2013-08-30 15:54:00,
2013-08-30 12:13:00,67.0,66.0,29.80,SSE,159,2.0,-999.0,97,-99.99,,,-99.99,,2013-08-30 16:13:00,
2013-08-30 12:25:00,67.0,66.0,29.80,South,175,1.0,-999.0,97,-99.99,,,-99.99,,2013-08-30 16:25:00,
2013-08-30 12:43:00,67.0,66.0,29.80,SSE,166,1.0,-999.0,97,-99.99,,,-99.99,,2013-08-30 16:43:00,
2013-08-30 12:53:00,68.0,67.0,29.80,SSE,166,0.0,-999.0,97,-99.99,,,-99.99,,2013-08-30 16:53:00,
2013-08-30 13:13:00,68.0,67.0,29.80,SSE,165,0.0,-999.0,97,-99.99,,,-99.99,,2013-08-30 17:13:00,
2013-08-30 13:23:00,68.0,67.0,29.81,SSE,165,0.0,-999.0,97,-99.99,,,-99.99,,2013-08-30 17:23:00,
2013-08-30 13:42:00,68.0,67.0,29.80,SSE,165,0.0,-999.0,97,-99.99,,,-99.99,,2013-08-30 17:42:00,
2013-08-30 13:53:00,68.0,67.0,29.80,SSW,198,0.0,-999.0,97,-99.99,,,-99.99,,2013-08-30 17:53:00,
2013-08-30 14:12:00,68.0,67.0,29.80,WNW,292,1.0,-999.0,97,-99.99,,,-99.99,,2013-08-30 18:12:00,
2013-08-30 14:22:00,69.0,68.0,29.80,WNW,292,1.0,-999.0,97,-99.99,,,-99.99,,2013-08-30 18:22:00,
2013-08-30 14:42:00,69.0,68.0,29.80,WNW,300,2.0,-999.0,98,-99.99,,,-99.99,,2013-08-30 18:42:00,
2013-08-30 14:52:00,69.0,68.0,29.79,WNW,300,1.0,-999.0,98,-99.99,,,-99.99,,2013-08-30 18:52:00,
2013-08-30 15:12:00,70.0,69.0,29.79,WNW,300,1.0,-999.0,98,-99.99,,,-99.99,,2013-08-30 19:12:00,
2013-08-30 15:22:00,70.0,69.0,29.79,NNW,329,3.0,-999.0,97,-99.99,,,-99.99,,2013-08-30 19:22:00,
2013-08-30 15:53:00,71.0,70.0,29.79,NW,320,3.0,-999.0,96,-99.99,,,-99.99,,2013-08-30 19:53:00,
2013-08-30 16:12:00,72.0,70.0,29.80,NNE,12,4.0,-999.0,95,-99.99,,,-99.99,,2013-08-30 20:12:00,
2013-08-30 16:22:00,72.0,70.0,29.80,NNE,15,3.0,-999.0,95,-99.99,,,-99.99,,2013-08-30 20:22:00,
2013-08-30 16:43:00,74.0,71.0,29.79,NNE,31,3.0,-999.0,89,-99.99,,,-99.99,,2013-08-30 20:43:00,
2013-08-30 16:52:00,74.0,70.0,29.80,North,360,4.0,-999.0,86,-99.99,,,-99.99,,2013-08-30 20:52:00,
2013-08-30 17:12:00,74.0,70.0,29.80,NNE,22,4.0,-999.0,86,-99.99,,,-99.99,,2013-08-30 21:12:00,
2013-08-30 17:22:00,74.0,70.0,29.81,NE,43,3.0,-999.0,86,-99.99,,,-99.99,,2013-08-30 21:22:00,
2013-08-30 17:55:00,72.0,68.0,29.82,NE,42,3.0,-999.0,88,-99.99,,,-99.99,,2013-08-30 21:55:00,
2013-08-30 18:13:00,72.0,68.0,29.82,NNE,29,6.0,-999.0,88,-99.99,,,-99.99,,2013-08-30 22:13:00,
2013-08-30 18:24:00,72.0,68.0,29.82,NNE,29,6.0,-999.0,88,-99.99,,,-99.99,,2013-08-30 22:24:00,
2013-08-30 18:43:00,73.0,69.0,29.83,NNE,14,6.0,-999.0,87,-99.99,,,-99.99,,2013-08-30 22:43:00,
2013-08-30 18:54:00,73.0,67.0,29.83,NNE,14,9.0,-999.0,81,-99.99,,,-99.99,,2013-08-30 22:54:00,
2013-08-30 19:12:00,74.0,68.0,29.83,NNE,24,6.0,-999.0,81,-99.99,,,-99.99,,2013-08-30 23:12:00,
2013-08-30 19:22:00,74.0,67.0,29.83,North,9,3.0,-999.0,80,-99.99,,,-99.99,,2013-08-30 23:22:00,
2013-08-30 19:53:00,71.0,65.0,29.84,North,5,6.0,-999.0,82,-99.99,,,-99.99,,2013-08-30 23:53:00,
2013-08-30 20:11:00,71.0,66.0,29.85,NNE,15,3.0,-999.0,84,-99.99,,,-99.99,,2013-08-31 00:11:00,
2013-08-30 20:22:00,70.0,65.0,29.86,North,9,3.0,-999.0,84,-99.99,,,-99.99,,2013-08-31 00:22:00,
2013-08-30 20:42:00,70.0,65.0,29.87,North,11,3.0,-999.0,84,-99.99,,,-99.99,,2013-08-31 00:42:00,
2013-08-30 20:52:00,69.0,64.0,29.87,NNE,17,2.0,-999.0,85,-99.99,,,-99.99,,2013-08-31 00:52:00,
2013-08-30 21:11:00,68.0,64.0,29.89,NNE,17,0.0,-999.0,87,-99.99,,,-99.99,,2013-08-31 01:11:00,
2013-08-30 21:22:00,68.0,65.0,29.90,NNE,17,0.0,-999.0,90,-99.99,,,-99.99,,2013-08-31 01:22:00,
2013-08-30 21:42:00,67.0,64.0,29.91,NNE,32,2.0,-999.0,91,-99.99,,,-99.99,,2013-08-31 01:42:00,
2013-08-30 21:52:00,67.0,63.0,29.92,North,9,3.0,-999.0,88,-99.99,,,-99.99,,2013-08-31 01:52:00,
2013-08-30 22:12:00,68.0,64.0,29.91,North,355,3.0,-999.0,86,-99.99,,,-99.99,,2013-08-31 02:12:00,
2013-08-30 22:22:00,68.0,63.0,29.92,NNE,30,5.0,-999.0,85,-99.99,,,-99.99,,2013-08-31 02:22:00,
2013-08-30 22:42:00,67.0,63.0,29.93,NE,38,1.0,-999.0,86,-99.99,,,-99.99,,2013-08-31 02:42:00,
2013-08-30 22:52:00,67.0,63.0,29.92,NNE,26,3.0,-999.0,86,-99.99,,,-99.99,,2013-08-31 02:52:00,
2013-08-30 23:12:00,66.0,62.0,29.92,NE,43,3.0,-999.0,87,-99.99,,,-99.99,,2013-08-31 03:12:00,
2013-08-30 23:22:00,66.0,62.0,29.92,NNE,25,1.0,-999.0,87,-99.99,,,-99.99,,2013-08-31 03:22:00,
2013-08-30 23:44:00,66.0,63.0,29.92,NNE,25,0.0,-999.0,89,-99.99,,,-99.99,,2013-08-31 03:44:00,
2013-08-30 23:54:00,66.0,63.0,29.92,NNE,25,0.0,-999.0,89,-99.99,,,-99.99,,2013-08-31 03:54:00,